Time,TemperatureF,DewpointF,PressureIn,WindDirection,WindDirectionDegrees,WindSpeedMPH,WindSpeedGustMPH,Humidity,HourlyPrecipIn,Conditions,Clouds,dailyrainin,SoftwareType,DateUTC
2013-09-24 00:00:00,47.1,40.0,29.56,WSW,247,1.9,4.0,79,0.00,,,0.00,Rainwise IP-100,2013-09-24 04:00:00,
2013-09-24 00:01:00,47.1,40.0,29.57,WSW,247,1.6,3.0,79,0.00,,,0.00,Rainwise IP-100,2013-09-24 04:01:00,
2013-09-24 00:02:00,47.1,40.0,29.56,WSW,247,1.4,3.0,79,0.00,,,0.00,Rainwise IP-100,2013-09-24 04:02:00,
2013-09-24 00:06:00,47.1,40.0,29.56,WSW,247,2.1,2.1,79,0.00,,,0.00,Rainwise IP-100,2013-09-24 04:06:00,
2013-09-24 00:11:00,46.9,41.0,29.56,WSW,247,0.0,2.0,80,0.00,,,0.00,Rainwise IP-100,2013-09-24 04:11:00,
2013-09-24 00:16:00,46.8,41.0,29.56,WSW,247,0.0,1.0,80,0.00,,,0.00,Rainwise IP-100,2013-09-24 04:16:00,
2013-09-24 00:21:00,46.7,41.0,29.56,WSW,247,1.6,1.6,80,0.00,,,0.00,Rainwise IP-100,2013-09-24 04:21:00,
2013-09-24 00:26:00,46.5,41.0,29.56,WSW,247,1.6,2.0,81,0.00,,,0.00,Rainwise IP-100,2013-09-24 04:26:00,
2013-09-24 00:31:00,46.6,41.0,29.56,WSW,247,0.0,2.0,81,0.00,,,0.00,Rainwise IP-100,2013-09-24 04:31:00,
2013-09-24 00:36:00,46.6,41.0,29.56,WSW,247,1.4,1.4,81,0.00,,,0.00,Rainwise IP-100,2013-09-24 04:36:00,
2013-09-24 00:41:00,46.5,41.0,29.55,WSW,247,0.0,1.0,81,0.00,,,0.00,Rainwise IP-100,2013-09-24 04:41:00,
2013-09-24 00:46:00,46.5,41.0,29.55,WSW,247,0.0,1.0,82,0.00,,,0.00,Rainwise IP-100,2013-09-24 04:46:00,
2013-09-24 00:51:00,46.4,41.0,29.55,WNW,292,0.0,2.0,83,0.00,,,0.00,Rainwise IP-100,2013-09-24 04:51:00,
2013-09-24 00:56:00,46.4,41.0,29.56,WNW,292,0.0,1.0,83,0.00,,,0.00,Rainwise IP-100,2013-09-24 04:56:00,
2013-09-24 01:01:00,46.3,41.0,29.55,WNW,292,0.0,1.0,83,0.00,,,0.00,Rainwise IP-100,2013-09-24 05:01:00,
2013-09-24 01:06:00,46.2,41.0,29.55,WNW,292,0.0,1.0,83,0.00,,,0.00,Rainwise IP-100,2013-09-24 05:06:00,
2013-09-24 01:11:00,46.3,41.0,29.55,WNW,292,0.0,1.0,83,0.00,,,0.00,Rainwise IP-100,2013-09-24 05:11:00,
2013-09-24 01:17:00,46.4,40.0,29.55,WNW,292,0.0,1.0,82,0.00,,,0.00,Rainwise IP-100,2013-09-24 05:17:00,
2013-09-24 01:22:00,46.4,40.0,29.55,WNW,292,0.0,3.0,82,0.00,,,0.00,Rainwise IP-100,2013-09-24 05:22:00,
2013-09-24 01:27:00,46.5,41.0,29.55,WNW,292,0.0,4.0,82,0.00,,,0.00,Rainwise IP-100,2013-09-24 05:27:00,
2013-09-24 01:32:00,46.6,41.0,29.56,North,360,0.0,1.0,82,0.00,,,0.00,Rainwise IP-100,2013-09-24 05:32:00,
2013-09-24 01:37:00,46.7,41.0,29.55,NNE,22,1.2,5.0,81,0.00,,,0.00,Rainwise IP-100,2013-09-24 05:37:00,
2013-09-24 01:42:00,46.8,41.0,29.56,North,360,0.0,3.0,81,0.00,,,0.00,Rainwise IP-100,2013-09-24 05:42:00,
2013-09-24 01:47:00,46.8,41.0,29.55,North,360,0.0,0.0,81,0.00,,,0.00,Rainwise IP-100,2013-09-24 05:47:00,
2013-09-24 01:52:00,46.8,41.0,29.55,South,180,0.0,1.0,81,0.00,,,0.00,Rainwise IP-100,2013-09-24 05:52:00,
2013-09-24 01:57:00,46.7,41.0,29.55,NW,315,1.4,1.4,80,0.00,,,0.00,Rainwise IP-100,2013-09-24 05:57:00,
2013-09-24 02:02:00,46.9,40.0,29.55,NNE,22,0.0,3.0,79,0.00,,,0.00,Rainwise IP-100,2013-09-24 06:02:00,
2013-09-24 02:07:00,47.2,40.0,29.55,NNE,22,0.0,5.0,78,0.00,,,0.00,Rainwise IP-100,2013-09-24 06:07:00,
2013-09-24 02:12:00,47.3,40.0,29.54,NNW,337,0.0,4.0,77,0.00,,,0.00,Rainwise IP-100,2013-09-24 06:12:00,
2013-09-24 02:17:00,47.3,40.0,29.55,NW,315,1.6,2.0,77,0.00,,,0.00,Rainwise IP-100,2013-09-24 06:17:00,
2013-09-24 02:22:00,47.3,40.0,29.54,North,360,0.0,3.0,77,0.00,,,0.00,Rainwise IP-100,2013-09-24 06:22:00,
2013-09-24 02:27:00,47.3,40.0,29.54,NNW,337,0.0,4.0,77,0.00,,,0.00,Rainwise IP-100,2013-09-24 06:27:00,
2013-09-24 02:33:00,47.3,40.0,29.54,WNW,292,1.2,7.0,77,0.00,,,0.00,Rainwise IP-100,2013-09-24 06:33:00,
2013-09-24 02:38:00,47.3,40.0,29.54,NNE,22,4.2,6.0,77,0.00,,,0.00,Rainwise IP-100,2013-09-24 06:38:00,
2013-09-24 02:43:00,47.5,40.0,29.54,NNE,22,4.4,7.0,76,0.00,,,0.00,Rainwise IP-100,2013-09-24 06:43:00,
2013-09-24 02:48:00,47.5,40.0,29.54,ENE,67,4.0,11.0,75,0.00,,,0.00,Rainwise IP-100,2013-09-24 06:48:00,
2013-09-24 02:53:00,47.6,39.0,29.54,ENE,67,4.2,8.0,74,0.00,,,0.00,Rainwise IP-100,2013-09-24 06:53:00,
2013-09-24 02:58:00,47.8,39.0,29.54,North,360,3.0,13.0,73,0.00,,,0.00,Rainwise IP-100,2013-09-24 06:58:00,
2013-09-24 03:03:00,47.9,40.0,29.54,NNW,337,8.9,10.0,73,0.00,,,0.00,Rainwise IP-100,2013-09-24 07:03:00,
2013-09-24 03:08:00,47.9,39.0,29.54,North,360,3.7,9.0,72,0.00,,,0.00,Rainwise IP-100,2013-09-24 07:08:00,
2013-09-24 03:13:00,47.9,39.0,29.54,NNE,22,4.9,10.0,72,0.00,,,0.00,Rainwise IP-100,2013-09-24 07:13:00,
2013-09-24 03:18:00,48.0,39.0,29.54,ENE,67,1.2,9.0,71,0.00,,,0.00,Rainwise IP-100,2013-09-24 07:18:00,
2013-09-24 03:23:00,47.9,39.0,29.54,NNE,22,14.9,14.9,71,0.00,,,0.00,Rainwise IP-100,2013-09-24 07:23:00,
2013-09-24 03:28:00,48.0,39.0,29.54,NNE,22,4.9,19.0,71,0.00,,,0.00,Rainwise IP-100,2013-09-24 07:28:00,
2013-09-24 03:33:00,48.1,39.0,29.54,North,360,6.3,7.0,70,0.00,,,0.00,Rainwise IP-100,2013-09-24 07:33:00,
2013-09-24 03:38:00,48.0,39.0,29.54,ENE,67,4.9,7.0,71,0.00,,,0.00,Rainwise IP-100,2013-09-24 07:38:00,
2013-09-24 03:43:00,47.9,39.0,29.54,North,360,3.0,7.0,71,0.00,,,0.00,Rainwise IP-100,2013-09-24 07:43:00,
2013-09-24 03:49:00,47.8,38.0,29.54,NNE,22,3.3,4.0,71,0.00,,,0.00,Rainwise IP-100,2013-09-24 07:49:00,
2013-09-24 03:54:00,47.8,38.0,29.54,NNE,22,4.4,7.0,71,0.00,,,0.00,Rainwise IP-100,2013-09-24 07:54:00,
2013-09-24 03:59:00,47.7,38.0,29.54,NNE,22,7.0,10.0,71,0.00,,,0.00,Rainwise IP-100,2013-09-24 07:59:00,
2013-09-24 04:04:00,47.7,39.0,29.54,North,360,4.9,8.0,72,0.00,,,0.00,Rainwise IP-100,2013-09-24 08:04:00,
2013-09-24 04:09:00,47.7,39.0,29.54,NNE,22,4.0,6.0,72,0.00,,,0.00,Rainwise IP-100,2013-09-24 08:09:00,
2013-09-24 04:14:00,47.6,39.0,29.54,North,360,3.7,7.0,72,0.00,,,0.00,Rainwise IP-100,2013-09-24 08:14:00,
2013-09-24 04:19:00,47.6,39.0,29.54,NNE,22,7.2,7.2,72,0.00,,,0.00,Rainwise IP-100,2013-09-24 08:19:00,
2013-09-24 04:24:00,47.6,39.0,29.53,NNW,337,5.4,11.0,72,0.00,,,0.00,Rainwise IP-100,2013-09-24 08:24:00,
2013-09-24 04:29:00,47.7,39.0,29.54,NNE,22,1.6,13.0,72,0.00,,,0.00,Rainwise IP-100,2013-09-24 08:29:00,
2013-09-24 04:34:00,47.7,39.0,29.53,NNE,22,6.3,7.0,72,0.00,,,0.00,Rainwise IP-100,2013-09-24 08:34:00,
2013-09-24 04:39:00,47.5,39.0,29.53,NNE,22,4.9,8.0,72,0.00,,,0.00,Rainwise IP-100,2013-09-24 08:39:00,
2013-09-24 04:44:00,47.6,39.0,29.53,North,360,5.1,10.0,72,0.00,,,0.00,Rainwise IP-100,2013-09-24 08:44:00,
2013-09-24 04:49:00,47.7,38.0,29.53,ENE,67,3.0,10.0,71,0.00,,,0.00,Rainwise IP-100,2013-09-24 08:49:00,
2013-09-24 04:54:00,47.6,38.0,29.53,NNW,337,3.7,9.0,71,0.00,,,0.00,Rainwise IP-100,2013-09-24 08:54:00,
2013-09-24 04:59:00,47.5,39.0,29.53,NNE,22,2.8,7.0,72,0.00,,,0.00,Rainwise IP-100,2013-09-24 08:59:00,
2013-09-24 05:05:00,47.4,39.0,29.53,NNE,22,1.9,5.0,72,0.00,,,0.00,Rainwise IP-100,2013-09-24 09:05:00,
2013-09-24 05:10:00,47.3,38.0,29.53,NNE,22,2.6,4.0,72,0.00,,,0.00,Rainwise IP-100,2013-09-24 09:10:00,
2013-09-24 05:15:00,47.3,38.0,29.53,NNE,22,0.0,5.0,73,0.00,,,0.00,Rainwise IP-100,2013-09-24 09:15:00,
2013-09-24 05:20:00,47.2,38.0,29.53,NNE,22,1.2,3.0,73,0.00,,,0.00,Rainwise IP-100,2013-09-24 09:20:00,
2013-09-24 05:25:00,47.1,39.0,29.53,NNW,337,0.0,1.0,74,0.00,,,0.00,Rainwise IP-100,2013-09-24 09:25:00,
2013-09-24 05:30:00,46.9,39.0,29.53,NNW,337,1.2,2.0,75,0.00,,,0.00,Rainwise IP-100,2013-09-24 09:30:00,
2013-09-24 05:35:00,46.8,39.0,29.53,NNW,337,3.5,3.5,75,0.00,,,0.00,Rainwise IP-100,2013-09-24 09:35:00,
2013-09-24 05:40:00,46.8,39.0,29.53,NE,45,1.9,3.0,75,0.00,,,0.00,Rainwise IP-100,2013-09-24 09:40:00,
2013-09-24 05:45:00,46.8,39.0,29.53,NNE,22,0.0,2.0,75,0.00,,,0.00,Rainwise IP-100,2013-09-24 09:45:00,
2013-09-24 05:50:00,46.7,39.0,29.53,NNE,22,0.0,0.0,76,0.00,,,0.00,Rainwise IP-100,2013-09-24 09:50:00,
2013-09-24 05:55:00,46.5,39.0,29.53,NNW,337,4.2,4.2,76,0.00,,,0.00,Rainwise IP-100,2013-09-24 09:55:00,
2013-09-24 06:00:00,46.6,39.0,29.53,North,360,0.0,6.0,76,0.00,,,0.00,Rainwise IP-100,2013-09-24 10:00:00,
2013-09-24 06:05:00,46.8,39.0,29.53,North,360,1.4,3.0,76,0.00,,,0.00,Rainwise IP-100,2013-09-24 10:05:00,
2013-09-24 06:10:00,46.8,39.0,29.54,North,360,0.0,1.0,76,0.00,,,0.00,Rainwise IP-100,2013-09-24 10:10:00,
2013-09-24 06:15:00,46.6,39.0,29.53,NNW,337,2.3,3.0,76,0.00,,,0.00,Rainwise IP-100,2013-09-24 10:15:00,
2013-09-24 06:21:00,46.5,39.0,29.53,NNE,22,1.9,4.0,76,0.00,,,0.00,Rainwise IP-100,2013-09-24 10:21:00,
2013-09-24 06:26:00,46.6,39.0,29.53,NNE,22,0.0,6.0,76,0.00,,,0.00,Rainwise IP-100,2013-09-24 10:26:00,
2013-09-24 06:31:00,46.5,39.0,29.53,North,360,2.6,4.0,76,0.00,,,0.00,Rainwise IP-100,2013-09-24 10:31:00,
2013-09-24 06:36:00,46.4,39.0,29.53,NNW,337,0.0,4.0,76,0.00,,,0.00,Rainwise IP-100,2013-09-24 10:36:00,
2013-09-24 06:41:00,46.5,39.0,29.53,NNW,337,2.8,4.0,76,0.00,,,0.00,Rainwise IP-100,2013-09-24 10:41:00,
2013-09-24 06:46:00,46.5,39.0,29.53,NNW,337,0.0,3.0,76,0.00,,,0.00,Rainwise IP-100,2013-09-24 10:46:00,
2013-09-24 06:51:00,46.5,40.0,29.53,NNW,337,0.0,0.0,77,0.00,,,0.00,Rainwise IP-100,2013-09-24 10:51:00,
2013-09-24 06:56:00,46.4,39.0,29.53,NNW,337,0.0,4.0,78,0.00,,,0.00,Rainwise IP-100,2013-09-24 10:56:00,
2013-09-24 07:01:00,46.5,40.0,29.53,NNW,337,0.0,1.0,77,0.00,,,0.00,Rainwise IP-100,2013-09-24 11:01:00,
2013-09-24 07:06:00,46.5,40.0,29.53,NNW,337,4.4,6.0,78,0.00,,,0.00,Rainwise IP-100,2013-09-24 11:06:00,
2013-09-24 07:11:00,46.6,39.0,29.53,NNE,22,4.0,8.0,76,0.00,,,0.00,Rainwise IP-100,2013-09-24 11:11:00,
2013-09-24 07:16:00,46.8,39.0,29.53,NE,45,5.4,7.0,75,0.00,,,0.00,Rainwise IP-100,2013-09-24 11:16:00,
2013-09-24 07:21:00,46.9,39.0,29.52,NNW,337,4.0,6.0,75,0.00,,,0.00,Rainwise IP-100,2013-09-24 11:21:00,
2013-09-24 07:26:00,46.9,39.0,29.52,SW,225,0.0,4.0,75,0.00,,,0.00,Rainwise IP-100,2013-09-24 11:26:00,
2013-09-24 07:31:00,46.9,39.0,29.52,NNW,337,3.5,6.0,76,0.00,,,0.00,Rainwise IP-100,2013-09-24 11:31:00,
2013-09-24 07:37:00,47.0,39.0,29.52,NNW,337,4.4,4.4,75,0.00,,,0.00,Rainwise IP-100,2013-09-24 11:37:00,
2013-09-24 07:42:00,47.1,39.0,29.52,NNW,337,3.5,8.0,74,0.00,,,0.00,Rainwise IP-100,2013-09-24 11:42:00,
2013-09-24 07:47:00,47.2,39.0,29.52,NNE,22,8.6,8.6,74,0.00,,,0.00,Rainwise IP-100,2013-09-24 11:47:00,
2013-09-24 07:52:00,47.2,39.0,29.52,NNE,22,5.1,11.0,74,0.00,,,0.00,Rainwise IP-100,2013-09-24 11:52:00,
2013-09-24 07:57:00,47.3,38.0,29.52,NNE,22,5.4,8.0,73,0.00,,,0.00,Rainwise IP-100,2013-09-24 11:57:00,
2013-09-24 08:02:00,47.3,38.0,29.52,NE,45,5.8,8.0,73,0.00,,,0.00,Rainwise IP-100,2013-09-24 12:02:00,
2013-09-24 08:07:00,47.3,38.0,29.52,NNE,22,7.5,10.0,73,0.00,,,0.00,Rainwise IP-100,2013-09-24 12:07:00,
2013-09-24 08:12:00,47.3,38.0,29.52,NE,45,4.0,13.0,72,0.00,,,0.00,Rainwise IP-100,2013-09-24 12:12:00,
2013-09-24 08:17:00,47.4,39.0,29.52,East,90,3.5,11.0,72,0.00,,,0.00,Rainwise IP-100,2013-09-24 12:17:00,
2013-09-24 08:22:00,47.4,39.0,29.52,NNW,337,0.0,7.0,72,0.00,,,0.00,Rainwise IP-100,2013-09-24 12:22:00,
2013-09-24 08:27:00,47.4,39.0,29.52,NNE,22,4.9,6.0,73,0.00,,,0.00,Rainwise IP-100,2013-09-24 12:27:00,
2013-09-24 08:32:00,47.5,39.0,29.52,NNE,22,8.4,8.4,72,0.00,,,0.00,Rainwise IP-100,2013-09-24 12:32:00,
2013-09-24 08:37:00,47.6,39.0,29.52,North,360,4.0,11.0,72,0.00,,,0.00,Rainwise IP-100,2013-09-24 12:37:00,
2013-09-24 08:42:00,47.6,39.0,29.52,North,360,4.2,10.0,72,0.00,,,0.00,Rainwise IP-100,2013-09-24 12:42:00,
2013-09-24 08:47:00,47.7,39.0,29.52,NW,315,0.0,11.0,72,0.00,,,0.00,Rainwise IP-100,2013-09-24 12:47:00,
2013-09-24 08:53:00,47.8,39.0,29.51,NE,45,4.7,6.0,72,0.00,,,0.00,Rainwise IP-100,2013-09-24 12:53:00,
2013-09-24 08:58:00,47.7,39.0,29.50,WNW,292,4.4,8.0,72,0.00,,,0.00,Rainwise IP-100,2013-09-24 12:58:00,
2013-09-24 09:03:00,47.8,39.0,29.51,NE,45,8.4,10.0,72,0.00,,,0.00,Rainwise IP-100,2013-09-24 13:03:00,
2013-09-24 09:08:00,47.9,39.0,29.51,North,360,4.2,8.0,72,0.00,,,0.00,Rainwise IP-100,2013-09-24 13:08:00,
2013-09-24 09:13:00,48.0,39.0,29.51,NNE,22,4.2,6.0,72,0.00,,,0.00,Rainwise IP-100,2013-09-24 13:13:00,
2013-09-24 09:18:00,48.1,39.0,29.51,WNW,292,3.7,8.0,71,0.00,,,0.00,Rainwise IP-100,2013-09-24 13:18:00,
2013-09-24 09:23:00,48.2,39.0,29.51,NE,45,7.5,12.0,71,0.00,,,0.00,Rainwise IP-100,2013-09-24 13:23:00,
2013-09-24 09:28:00,48.3,39.0,29.51,WNW,292,0.0,12.0,71,0.00,,,0.00,Rainwise IP-100,2013-09-24 13:28:00,
2013-09-24 09:33:00,48.4,39.0,29.51,NNE,22,5.1,13.0,70,0.00,,,0.00,Rainwise IP-100,2013-09-24 13:33:00,
2013-09-24 09:38:00,48.5,40.0,29.51,North,360,2.8,10.0,70,0.00,,,0.00,Rainwise IP-100,2013-09-24 13:38:00,
2013-09-24 09:43:00,48.6,40.0,29.51,NE,45,4.9,6.0,70,0.00,,,0.00,Rainwise IP-100,2013-09-24 13:43:00,
2013-09-24 09:48:00,48.7,40.0,29.51,East,90,3.5,9.0,70,0.00,,,0.00,Rainwise IP-100,2013-09-24 13:48:00,
2013-09-24 09:53:00,48.9,40.0,29.51,NNE,22,7.7,7.7,70,0.00,,,0.00,Rainwise IP-100,2013-09-24 13:53:00,
2013-09-24 09:58:00,49.0,39.0,29.51,North,360,4.9,10.0,69,0.00,,,0.00,Rainwise IP-100,2013-09-24 13:58:00,
2013-09-24 10:03:00,49.2,39.0,29.51,NNW,337,3.7,15.0,69,0.00,,,0.00,Rainwise IP-100,2013-09-24 14:03:00,
2013-09-24 10:09:00,49.3,39.0,29.50,NNE,22,5.6,12.0,68,0.00,,,0.00,Rainwise IP-100,2013-09-24 14:09:00,
2013-09-24 10:14:00,49.4,39.0,29.51,West,270,4.2,9.0,68,0.00,,,0.00,Rainwise IP-100,2013-09-24 14:14:00,
2013-09-24 10:19:00,49.5,39.0,29.51,NNE,22,1.9,12.0,67,0.00,,,0.00,Rainwise IP-100,2013-09-24 14:19:00,
2013-09-24 10:24:00,50.1,39.0,29.50,NNE,22,9.8,10.0,67,0.00,,,0.00,Rainwise IP-100,2013-09-24 14:24:00,
2013-09-24 10:29:00,51.1,41.0,29.49,North,360,5.6,10.0,68,0.00,,,0.00,Rainwise IP-100,2013-09-24 14:29:00,
2013-09-24 10:34:00,51.7,41.0,29.50,North,360,3.3,10.0,66,0.00,,,0.00,Rainwise IP-100,2013-09-24 14:34:00,
2013-09-24 10:39:00,51.9,40.0,29.50,North,360,13.1,14.0,65,0.00,,,0.00,Rainwise IP-100,2013-09-24 14:39:00,
2013-09-24 10:44:00,51.9,40.0,29.50,North,360,3.0,14.0,63,0.00,,,0.00,Rainwise IP-100,2013-09-24 14:44:00,
2013-09-24 10:49:00,52.0,40.0,29.50,NNW,337,0.0,10.0,63,0.00,,,0.00,Rainwise IP-100,2013-09-24 14:49:00,
2013-09-24 10:54:00,52.6,40.0,29.50,NNE,22,4.9,8.0,62,0.00,,,0.00,Rainwise IP-100,2013-09-24 14:54:00,
2013-09-24 10:59:00,53.1,39.0,29.50,North,360,4.0,15.0,61,0.00,,,0.00,Rainwise IP-100,2013-09-24 14:59:00,
2013-09-24 11:04:00,53.4,40.0,29.49,NNE,22,7.2,10.0,61,0.00,,,0.00,Rainwise IP-100,2013-09-24 15:04:00,
2013-09-24 11:09:00,53.5,40.0,29.49,NNE,22,8.9,13.0,60,0.00,,,0.00,Rainwise IP-100,2013-09-24 15:09:00,
2013-09-24 11:14:00,53.5,39.0,29.49,NNE,22,6.5,12.0,59,0.00,,,0.00,Rainwise IP-100,2013-09-24 15:14:00,
2013-09-24 11:19:00,53.9,40.0,29.48,North,360,13.5,19.0,59,0.00,,,0.00,Rainwise IP-100,2013-09-24 15:19:00,
2013-09-24 11:25:00,54.2,39.0,29.48,NNE,22,2.8,19.0,58,0.00,,,0.00,Rainwise IP-100,2013-09-24 15:25:00,
2013-09-24 11:30:00,54.4,40.0,29.48,NNW,337,9.1,9.1,57,0.00,,,0.00,Rainwise IP-100,2013-09-24 15:30:00,
2013-09-24 11:35:00,54.8,40.0,29.48,North,360,8.2,14.0,57,0.00,,,0.00,Rainwise IP-100,2013-09-24 15:35:00,
2013-09-24 11:40:00,54.8,39.0,29.48,NNW,337,8.2,14.0,56,0.00,,,0.00,Rainwise IP-100,2013-09-24 15:40:00,
2013-09-24 11:45:00,55.1,40.0,29.48,ESE,112,0.0,16.0,56,0.00,,,0.00,Rainwise IP-100,2013-09-24 15:45:00,
2013-09-24 11:50:00,55.5,40.0,29.47,NNE,22,7.2,16.0,55,0.00,,,0.00,Rainwise IP-100,2013-09-24 15:50:00,
2013-09-24 11:55:00,55.4,39.0,29.47,NNW,337,2.6,12.0,55,0.00,,,0.00,Rainwise IP-100,2013-09-24 15:55:00,
2013-09-24 12:00:00,55.5,39.0,29.46,NE,45,9.8,16.0,54,0.00,,,0.00,Rainwise IP-100,2013-09-24 16:00:00,
2013-09-24 12:05:00,56.0,39.0,29.46,NE,45,2.8,14.0,54,0.00,,,0.00,Rainwise IP-100,2013-09-24 16:05:00,
2013-09-24 12:10:00,56.6,40.0,29.46,NE,45,4.7,18.0,54,0.00,,,0.00,Rainwise IP-100,2013-09-24 16:10:00,
2013-09-24 12:15:00,56.7,39.0,29.46,NE,45,10.7,21.0,53,0.00,,,0.00,Rainwise IP-100,2013-09-24 16:15:00,
2013-09-24 12:20:00,56.6,38.0,29.46,NNE,22,7.5,17.0,51,0.00,,,0.00,Rainwise IP-100,2013-09-24 16:20:00,
2013-09-24 12:25:00,56.6,38.0,29.46,NNE,22,7.0,18.0,51,0.00,,,0.00,Rainwise IP-100,2013-09-24 16:25:00,
2013-09-24 12:30:00,56.8,38.0,29.46,ENE,67,1.6,16.0,51,0.00,,,0.00,Rainwise IP-100,2013-09-24 16:30:00,
2013-09-24 12:35:00,57.0,39.0,29.45,NE,45,5.4,11.0,51,0.00,,,0.00,Rainwise IP-100,2013-09-24 16:35:00,
2013-09-24 12:41:00,57.3,39.0,29.45,ENE,67,3.0,10.0,51,0.00,,,0.00,Rainwise IP-100,2013-09-24 16:41:00,
2013-09-24 12:46:00,57.8,39.0,29.45,SE,135,1.9,9.0,51,0.00,,,0.00,Rainwise IP-100,2013-09-24 16:46:00,
2013-09-24 12:51:00,58.1,40.0,29.45,North,360,11.7,18.0,50,0.00,,,0.00,Rainwise IP-100,2013-09-24 16:51:00,
2013-09-24 12:56:00,58.0,39.0,29.45,NNE,22,12.8,16.0,49,0.00,,,0.00,Rainwise IP-100,2013-09-24 16:56:00,
2013-09-24 13:01:00,58.1,39.0,29.46,NNW,337,1.6,14.0,48,0.00,,,0.00,Rainwise IP-100,2013-09-24 17:01:00,
2013-09-24 13:06:00,58.3,39.0,29.45,NNE,22,12.4,17.0,48,0.00,,,0.00,Rainwise IP-100,2013-09-24 17:06:00,
2013-09-24 13:11:00,58.4,38.0,29.44,NNE,22,21.5,21.5,47,0.00,,,0.00,Rainwise IP-100,2013-09-24 17:11:00,
2013-09-24 13:16:00,58.2,38.0,29.44,ENE,67,3.7,22.0,46,0.00,,,0.00,Rainwise IP-100,2013-09-24 17:16:00,
2013-09-24 13:21:00,58.1,38.0,29.44,North,360,11.2,23.0,46,0.00,,,0.00,Rainwise IP-100,2013-09-24 17:21:00,
2013-09-24 13:26:00,58.3,38.0,29.44,ENE,67,9.1,21.0,46,0.00,,,0.00,Rainwise IP-100,2013-09-24 17:26:00,
2013-09-24 13:31:00,58.5,38.0,29.44,NE,45,6.8,16.0,46,0.00,,,0.00,Rainwise IP-100,2013-09-24 17:31:00,
2013-09-24 13:36:00,58.8,38.0,29.44,NNE,22,7.9,14.0,46,0.00,,,0.00,Rainwise IP-100,2013-09-24 17:36:00,
2013-09-24 13:41:00,59.1,38.0,29.44,NNE,22,8.9,10.0,46,0.00,,,0.00,Rainwise IP-100,2013-09-24 17:41:00,
2013-09-24 13:46:00,59.6,38.0,29.44,North,360,12.8,12.8,46,0.00,,,0.00,Rainwise IP-100,2013-09-24 17:46:00,
2013-09-24 13:51:00,59.7,38.0,29.43,NW,315,5.4,18.0,45,0.00,,,0.00,Rainwise IP-100,2013-09-24 17:51:00,
2013-09-24 13:57:00,59.5,38.0,29.43,East,90,2.8,17.0,45,0.00,,,0.00,Rainwise IP-100,2013-09-24 17:57:00,
2013-09-24 14:02:00,59.8,38.0,29.43,NNE,22,10.0,10.0,45,0.00,,,0.00,Rainwise IP-100,2013-09-24 18:02:00,
2013-09-24 14:07:00,60.0,38.0,29.43,North,360,6.1,19.0,44,0.00,,,0.00,Rainwise IP-100,2013-09-24 18:07:00,
2013-09-24 14:12:00,60.2,38.0,29.43,NE,45,4.4,16.0,44,0.00,,,0.00,Rainwise IP-100,2013-09-24 18:12:00,
2013-09-24 14:17:00,60.5,38.0,29.43,NNE,22,1.9,8.0,44,0.00,,,0.00,Rainwise IP-100,2013-09-24 18:17:00,
2013-09-24 14:22:00,60.9,39.0,29.43,NNE,22,1.9,10.0,44,0.00,,,0.00,Rainwise IP-100,2013-09-24 18:22:00,
2013-09-24 14:27:00,61.5,39.0,29.42,SW,225,7.5,8.0,44,0.00,,,0.00,Rainwise IP-100,2013-09-24 18:27:00,
2013-09-24 14:32:00,61.7,39.0,29.43,ENE,67,7.9,12.0,44,0.00,,,0.00,Rainwise IP-100,2013-09-24 18:32:00,
2013-09-24 14:37:00,61.5,39.0,29.42,ENE,67,4.4,15.0,43,0.00,,,0.00,Rainwise IP-100,2013-09-24 18:37:00,
2013-09-24 14:42:00,61.3,38.0,29.43,SSW,202,2.8,10.0,43,0.00,,,0.00,Rainwise IP-100,2013-09-24 18:42:00,
2013-09-24 14:47:00,61.5,39.0,29.42,NNE,22,6.5,8.0,43,0.00,,,0.00,Rainwise IP-100,2013-09-24 18:47:00,
2013-09-24 14:52:00,61.6,39.0,29.42,NNE,22,5.4,14.0,43,0.00,,,0.00,Rainwise IP-100,2013-09-24 18:52:00,
2013-09-24 14:57:00,61.8,39.0,29.42,NE,45,4.7,9.0,43,0.00,,,0.00,Rainwise IP-100,2013-09-24 18:57:00,
2013-09-24 15:02:00,62.1,39.0,29.42,North,360,8.2,11.0,43,0.00,,,0.00,Rainwise IP-100,2013-09-24 19:02:00,
2013-09-24 15:07:00,62.4,39.0,29.42,NNW,337,3.0,11.0,42,0.00,,,0.00,Rainwise IP-100,2013-09-24 19:07:00,
2013-09-24 15:13:00,62.5,39.0,29.41,NW,315,2.8,6.0,42,0.00,,,0.00,Rainwise IP-100,2013-09-24 19:13:00,
2013-09-24 15:18:00,62.7,39.0,29.41,NNE,22,5.1,7.0,42,0.00,,,0.00,Rainwise IP-100,2013-09-24 19:18:00,
2013-09-24 15:23:00,62.9,39.0,29.41,North,360,4.2,11.0,42,0.00,,,0.00,Rainwise IP-100,2013-09-24 19:23:00,
2013-09-24 15:28:00,62.9,39.0,29.42,NNE,22,9.6,15.0,41,0.00,,,0.00,Rainwise IP-100,2013-09-24 19:28:00,
2013-09-24 15:33:00,62.8,38.0,29.42,ENE,67,7.2,15.0,40,0.00,,,0.00,Rainwise IP-100,2013-09-24 19:33:00,
2013-09-24 15:38:00,62.6,38.0,29.42,NNW,337,10.0,14.0,40,0.00,,,0.00,Rainwise IP-100,2013-09-24 19:38:00,
2013-09-24 15:43:00,62.4,38.0,29.42,ENE,67,7.5,15.0,40,0.00,,,0.00,Rainwise IP-100,2013-09-24 19:43:00,
2013-09-24 15:48:00,62.3,37.0,29.42,NNE,22,3.5,12.0,40,0.00,,,0.00,Rainwise IP-100,2013-09-24 19:48:00,
2013-09-24 15:53:00,62.2,37.0,29.41,North,360,7.2,10.0,40,0.00,,,0.00,Rainwise IP-100,2013-09-24 19:53:00,
2013-09-24 15:58:00,62.2,37.0,29.42,NNE,22,13.5,18.0,40,0.00,,,0.00,Rainwise IP-100,2013-09-24 19:58:00,
2013-09-24 16:03:00,62.1,37.0,29.42,NNW,337,8.4,14.0,40,0.00,,,0.00,Rainwise IP-100,2013-09-24 20:03:00,
2013-09-24 16:08:00,62.1,38.0,29.42,NNE,22,11.0,19.0,41,0.00,,,0.00,Rainwise IP-100,2013-09-24 20:08:00,
2013-09-24 16:13:00,62.2,38.0,29.42,East,90,4.9,14.0,41,0.00,,,0.00,Rainwise IP-100,2013-09-24 20:13:00,
2013-09-24 16:18:00,62.2,38.0,29.43,NNE,22,6.3,15.0,41,0.00,,,0.00,Rainwise IP-100,2013-09-24 20:18:00,
2013-09-24 16:23:00,62.4,38.0,29.43,NNE,22,8.9,19.0,41,0.00,,,0.00,Rainwise IP-100,2013-09-24 20:23:00,
2013-09-24 16:29:00,62.2,38.0,29.43,NNW,337,10.5,15.0,41,0.00,,,0.00,Rainwise IP-100,2013-09-24 20:29:00,
2013-09-24 16:34:00,61.5,38.0,29.43,North,360,4.4,21.0,42,0.00,,,0.00,Rainwise IP-100,2013-09-24 20:34:00,
2013-09-24 16:39:00,60.8,38.0,29.44,North,360,7.0,13.0,43,0.00,,,0.00,Rainwise IP-100,2013-09-24 20:39:00,
2013-09-24 16:44:00,60.2,38.0,29.43,NNW,337,5.4,11.0,44,0.00,,,0.00,Rainwise IP-100,2013-09-24 20:44:00,
2013-09-24 16:49:00,60.0,39.0,29.43,NE,45,3.5,8.0,46,0.00,,,0.00,Rainwise IP-100,2013-09-24 20:49:00,
2013-09-24 16:54:00,59.8,39.0,29.43,NNE,22,5.1,11.0,47,0.00,,,0.00,Rainwise IP-100,2013-09-24 20:54:00,
2013-09-24 16:59:00,59.6,39.0,29.43,NNE,22,1.6,5.0,48,0.00,,,0.00,Rainwise IP-100,2013-09-24 20:59:00,
2013-09-24 17:04:00,59.4,39.0,29.44,NE,45,4.9,10.0,48,0.00,,,0.00,Rainwise IP-100,2013-09-24 21:04:00,
2013-09-24 17:09:00,59.3,39.0,29.44,North,360,3.3,7.0,48,0.00,,,0.00,Rainwise IP-100,2013-09-24 21:09:00,
2013-09-24 17:14:00,59.1,40.0,29.44,ENE,67,4.9,6.0,50,0.00,,,0.00,Rainwise IP-100,2013-09-24 21:14:00,
2013-09-24 17:19:00,58.8,41.0,29.44,NNE,22,4.0,9.0,51,0.00,,,0.00,Rainwise IP-100,2013-09-24 21:19:00,
2013-09-24 17:24:00,58.5,41.0,29.44,NE,45,7.0,8.0,52,0.00,,,0.00,Rainwise IP-100,2013-09-24 21:24:00,
2013-09-24 17:29:00,58.2,41.0,29.44,NE,45,3.5,10.0,53,0.00,,,0.00,Rainwise IP-100,2013-09-24 21:29:00,
2013-09-24 17:34:00,58.0,41.0,29.44,NNE,22,4.2,7.0,53,0.00,,,0.00,Rainwise IP-100,2013-09-24 21:34:00,
2013-09-24 17:39:00,57.8,40.0,29.45,NNE,22,7.9,11.0,53,0.00,,,0.00,Rainwise IP-100,2013-09-24 21:39:00,
2013-09-24 17:45:00,57.7,40.0,29.45,NE,45,4.2,11.0,53,0.00,,,0.00,Rainwise IP-100,2013-09-24 21:45:00,
2013-09-24 17:50:00,57.6,41.0,29.45,NNE,22,4.9,12.0,54,0.00,,,0.00,Rainwise IP-100,2013-09-24 21:50:00,
2013-09-24 17:55:00,57.4,41.0,29.45,NE,45,3.0,8.0,55,0.00,,,0.00,Rainwise IP-100,2013-09-24 21:55:00,
2013-09-24 18:00:00,57.2,41.0,29.45,NE,45,3.3,7.0,56,0.00,,,0.00,Rainwise IP-100,2013-09-24 22:00:00,
2013-09-24 18:05:00,57.0,42.0,29.45,NNE,22,0.0,6.0,57,0.00,,,0.00,Rainwise IP-100,2013-09-24 22:05:00,
2013-09-24 18:10:00,56.8,42.0,29.46,NNE,22,5.1,7.0,58,0.00,,,0.00,Rainwise IP-100,2013-09-24 22:10:00,
2013-09-24 18:15:00,56.7,42.0,29.46,NNE,22,3.3,6.0,58,0.00,,,0.00,Rainwise IP-100,2013-09-24 22:15:00,
2013-09-24 18:20:00,56.5,42.0,29.46,North,360,4.9,7.0,59,0.00,,,0.00,Rainwise IP-100,2013-09-24 22:20:00,
2013-09-24 18:25:00,56.3,42.0,29.46,NNE,22,2.1,6.0,59,0.00,,,0.00,Rainwise IP-100,2013-09-24 22:25:00,
2013-09-24 18:30:00,56.3,42.0,29.46,NNE,22,5.8,5.8,60,0.00,,,0.00,Rainwise IP-100,2013-09-24 22:30:00,
2013-09-24 18:35:00,56.1,42.0,29.46,NNE,22,3.5,7.0,61,0.00,,,0.00,Rainwise IP-100,2013-09-24 22:35:00,
2013-09-24 18:40:00,56.0,42.0,29.46,NE,45,4.0,6.0,61,0.00,,,0.00,Rainwise IP-100,2013-09-24 22:40:00,
2013-09-24 18:45:00,56.0,42.0,29.46,NNW,337,1.6,4.0,61,0.00,,,0.00,Rainwise IP-100,2013-09-24 22:45:00,
2013-09-24 18:50:00,55.9,42.0,29.46,NNW,337,0.0,3.0,61,0.00,,,0.00,Rainwise IP-100,2013-09-24 22:50:00,
2013-09-24 18:55:00,55.8,43.0,29.47,NNE,22,1.9,3.0,62,0.00,,,0.00,Rainwise IP-100,2013-09-24 22:55:00,
2013-09-24 19:01:00,55.6,43.0,29.47,NNE,22,0.0,2.0,62,0.00,,,0.00,Rainwise IP-100,2013-09-24 23:01:00,
2013-09-24 19:06:00,55.4,43.0,29.47,North,360,3.0,4.0,63,0.00,,,0.00,Rainwise IP-100,2013-09-24 23:06:00,
2013-09-24 19:11:00,55.3,43.0,29.47,NNE,22,1.6,4.0,63,0.00,,,0.00,Rainwise IP-100,2013-09-24 23:11:00,
2013-09-24 19:16:00,55.2,43.0,29.47,North,360,2.3,2.3,64,0.00,,,0.00,Rainwise IP-100,2013-09-24 23:16:00,
2013-09-24 19:21:00,55.1,43.0,29.47,NNW,337,0.0,3.0,64,0.00,,,0.00,Rainwise IP-100,2013-09-24 23:21:00,
2013-09-24 19:26:00,54.9,43.0,29.47,NNW,337,0.0,3.0,64,0.00,,,0.00,Rainwise IP-100,2013-09-24 23:26:00,
2013-09-24 19:31:00,54.8,43.0,29.47,North,360,1.2,3.0,64,0.00,,,0.00,Rainwise IP-100,2013-09-24 23:31:00,
2013-09-24 19:36:00,54.8,43.0,29.47,North,360,0.0,2.0,65,0.00,,,0.00,Rainwise IP-100,2013-09-24 23:36:00,
2013-09-24 19:41:00,54.6,43.0,29.47,NNW,337,1.4,2.0,66,0.00,,,0.00,Rainwise IP-100,2013-09-24 23:41:00,
2013-09-24 19:46:00,54.5,44.0,29.47,WNW,292,0.0,3.0,67,0.00,,,0.00,Rainwise IP-100,2013-09-24 23:46:00,
2013-09-24 19:51:00,54.4,44.0,29.47,WNW,292,1.9,1.9,68,0.00,,,0.00,Rainwise IP-100,2013-09-24 23:51:00,
2013-09-24 19:56:00,54.1,44.0,29.48,NNW,337,1.9,3.0,69,0.00,,,0.00,Rainwise IP-100,2013-09-24 23:56:00,
2013-09-24 20:02:00,54.0,44.0,29.48,North,360,0.0,2.0,70,0.00,,,0.00,Rainwise IP-100,2013-09-25 00:02:00,
2013-09-24 20:07:00,53.9,44.0,29.47,NNW,337,0.0,2.0,70,0.00,,,0.00,Rainwise IP-100,2013-09-25 00:07:00,
2013-09-24 20:12:00,53.6,44.0,29.47,NNW,337,0.0,2.0,71,0.00,,,0.00,Rainwise IP-100,2013-09-25 00:12:00,
2013-09-24 20:17:00,53.4,44.0,29.47,NNW,337,0.0,0.0,71,0.00,,,0.00,Rainwise IP-100,2013-09-25 00:17:00,
2013-09-24 20:22:00,53.3,44.0,29.47,NNW,337,0.0,0.0,73,0.00,,,0.00,Rainwise IP-100,2013-09-25 00:22:00,
2013-09-24 20:27:00,53.2,45.0,29.47,NNW,337,2.3,3.0,74,0.00,,,0.00,Rainwise IP-100,2013-09-25 00:27:00,
2013-09-24 20:32:00,53.2,44.0,29.47,NNW,337,0.0,2.0,73,0.00,,,0.00,Rainwise IP-100,2013-09-25 00:32:00,
2013-09-24 20:37:00,53.2,44.0,29.46,NNW,337,2.6,2.6,72,0.00,,,0.00,Rainwise IP-100,2013-09-25 00:37:00,
2013-09-24 20:42:00,53.2,44.0,29.47,NNW,337,1.4,3.0,73,0.00,,,0.00,Rainwise IP-100,2013-09-25 00:42:00,
2013-09-24 20:47:00,53.1,45.0,29.47,North,360,1.2,2.0,74,0.00,,,0.00,Rainwise IP-100,2013-09-25 00:47:00,
2013-09-24 20:52:00,53.1,44.0,29.47,NNW,337,1.2,2.0,73,0.00,,,0.00,Rainwise IP-100,2013-09-25 00:52:00,
2013-09-24 20:57:00,53.0,44.0,29.47,NNW,337,1.6,3.0,73,0.00,,,0.00,Rainwise IP-100,2013-09-25 00:57:00,
2013-09-24 21:02:00,53.0,44.0,29.47,WNW,292,0.0,2.0,73,0.00,,,0.00,Rainwise IP-100,2013-09-25 01:02:00,
2013-09-24 21:07:00,52.9,45.0,29.47,WNW,292,1.2,1.2,74,0.00,,,0.00,Rainwise IP-100,2013-09-25 01:07:00,
2013-09-24 21:13:00,52.8,45.0,29.47,WNW,292,1.4,1.4,74,0.00,,,0.00,Rainwise IP-100,2013-09-25 01:13:00,
2013-09-24 21:18:00,52.7,45.0,29.47,WNW,292,0.0,1.0,76,0.00,,,0.00,Rainwise IP-100,2013-09-25 01:18:00,
2013-09-24 21:23:00,52.6,45.0,29.47,WNW,292,1.4,1.4,76,0.00,,,0.00,Rainwise IP-100,2013-09-25 01:23:00,
2013-09-24 21:28:00,52.5,45.0,29.48,WNW,292,0.0,2.0,76,0.00,,,0.00,Rainwise IP-100,2013-09-25 01:28:00,
2013-09-24 21:33:00,52.5,45.0,29.47,WNW,292,0.0,1.0,76,0.00,,,0.00,Rainwise IP-100,2013-09-25 01:33:00,
2013-09-24 21:38:00,52.4,45.0,29.48,North,360,3.0,3.0,76,0.00,,,0.00,Rainwise IP-100,2013-09-25 01:38:00,
2013-09-24 21:43:00,52.4,45.0,29.47,NW,315,1.6,4.0,76,0.00,,,0.00,Rainwise IP-100,2013-09-25 01:43:00,
2013-09-24 21:48:00,52.5,45.0,29.47,WNW,292,1.4,3.0,76,0.00,,,0.00,Rainwise IP-100,2013-09-25 01:48:00,
2013-09-24 21:53:00,52.4,45.0,29.47,WNW,292,0.0,1.0,77,0.00,,,0.00,Rainwise IP-100,2013-09-25 01:53:00,
2013-09-24 21:58:00,52.3,45.0,29.47,WNW,292,0.0,1.0,78,0.00,,,0.00,Rainwise IP-100,2013-09-25 01:58:00,
2013-09-24 22:03:00,52.1,45.0,29.47,WNW,292,0.0,0.0,78,0.00,,,0.00,Rainwise IP-100,2013-09-25 02:03:00,
2013-09-24 22:09:00,52.1,45.0,29.47,WNW,292,0.0,0.0,78,0.00,,,0.00,Rainwise IP-100,2013-09-25 02:09:00,
2013-09-24 22:14:00,51.9,46.0,29.48,WNW,292,0.0,0.0,79,0.00,,,0.00,Rainwise IP-100,2013-09-25 02:14:00,
2013-09-24 22:19:00,51.8,46.0,29.47,WNW,292,0.0,0.0,80,0.00,,,0.00,Rainwise IP-100,2013-09-25 02:19:00,
2013-09-24 22:24:00,51.8,46.0,29.46,WNW,292,0.0,0.0,80,0.00,,,0.00,Rainwise IP-100,2013-09-25 02:24:00,
2013-09-24 22:29:00,51.7,47.0,29.47,WNW,292,0.0,0.0,81,0.00,,,0.00,Rainwise IP-100,2013-09-25 02:29:00,
2013-09-24 22:34:00,51.7,47.0,29.47,WNW,292,0.0,0.0,82,0.00,,,0.00,Rainwise IP-100,2013-09-25 02:34:00,
2013-09-24 22:39:00,51.7,47.0,29.47,WNW,292,0.0,0.0,82,0.00,,,0.00,Rainwise IP-100,2013-09-25 02:39:00,
2013-09-24 22:44:00,51.6,47.0,29.47,WNW,292,0.0,0.0,83,0.00,,,0.00,Rainwise IP-100,2013-09-25 02:44:00,
2013-09-24 22:49:00,51.5,47.0,29.47,WNW,292,1.2,2.0,83,0.00,,,0.00,Rainwise IP-100,2013-09-25 02:49:00,
2013-09-24 22:54:00,51.4,47.0,29.47,WNW,292,0.0,1.0,83,0.00,,,0.00,Rainwise IP-100,2013-09-25 02:54:00,
2013-09-24 22:59:00,51.4,47.0,29.47,WNW,292,0.0,0.0,83,0.00,,,0.00,Rainwise IP-100,2013-09-25 02:59:00,
2013-09-24 23:04:00,51.3,47.0,29.47,WNW,292,0.0,0.0,83,0.00,,,0.00,Rainwise IP-100,2013-09-25 03:04:00,
2013-09-24 23:09:00,51.3,47.0,29.47,WNW,292,1.4,1.4,84,0.00,,,0.00,Rainwise IP-100,2013-09-25 03:09:00,
2013-09-24 23:14:00,51.2,47.0,29.47,WNW,292,1.4,1.4,84,0.00,,,0.00,Rainwise IP-100,2013-09-25 03:14:00,
2013-09-24 23:19:00,51.3,47.0,29.47,WSW,247,1.4,2.0,83,0.00,,,0.00,Rainwise IP-100,2013-09-25 03:19:00,
2013-09-24 23:25:00,51.3,47.0,29.47,WSW,247,0.0,2.0,83,0.00,,,0.00,Rainwise IP-100,2013-09-25 03:25:00,
2013-09-24 23:30:00,51.1,47.0,29.47,WSW,247,0.0,1.0,84,0.00,,,0.00,Rainwise IP-100,2013-09-25 03:30:00,
2013-09-24 23:35:00,51.0,47.0,29.46,WSW,247,0.0,1.0,84,0.00,,,0.00,Rainwise IP-100,2013-09-25 03:35:00,
2013-09-24 23:40:00,51.0,47.0,29.46,WSW,247,0.0,0.0,84,0.00,,,0.00,Rainwise IP-100,2013-09-25 03:40:00,
2013-09-24 23:45:00,51.0,47.0,29.46,WSW,247,0.0,1.0,85,0.00,,,0.00,Rainwise IP-100,2013-09-25 03:45:00,
2013-09-24 23:50:00,51.2,47.0,29.46,SE,135,0.0,2.0,86,0.00,,,0.00,Rainwise IP-100,2013-09-25 03:50:00,
2013-09-24 23:55:00,51.3,47.0,29.46,NNW,337,0.0,1.0,86,0.00,,,0.00,Rainwise IP-100,2013-09-25 03:55:00,